Regional Weather Roundup
Issued by NWS

Home | Current Version | Previous Version | Text Only | Print | Product List | Glossary Off
Versions: 1 2 3 4 5 6 7 8 9 10 11 12 13 14 15 16 17 18 19 20 21 22 23 24 25 26 27 28 29 30 31 32 33 34 35 36 37 38 39 40 41 42 43 44 45 46 47 48 49 50

000
ASUS43 KDMX 010103
RWRIA

WEATHER ROUNDUP FOR IOWA
NATIONAL WEATHER SERVICE DES MOINES IA
800 PM CDT SAT APR 30 2016

NOTE: "FAIR" INDICATES FEW OR NO CLOUDS BELOW 12,000 FEET WITH NO
SIGNIFICANT WEATHER AND/OR OBSTRUCTIONS TO VISIBILITY.

* - THESE STATIONS ARE NOT NWS STATIONS...THUS NOT UNDER NWS
QUALITY CONTROL.  THEY ALSO DO NOT REPORT WEATHER SUCH
AS PRECIPITATION OR FOG.

IAZ001>003-012>014-020>022-031>034-043>046-010200-
   NORTHWEST IOWA

CITY           SKY/WX    TMP DP  RH WIND       PRES   REMARKS
CARROLL *      CLOUDY    46  46 100 E18G28    29.87R FOG
CHEROKEE *     CLOUDY    44  43  97 NE17G29   29.93R FOG
DENISON *      CLOUDY    46  45  93 E22G31    29.84R FOG
LE MARS *      CLOUDY    45  43  93 NE21G31   29.94R
ORANGE CITY *  CLOUDY    43  41  93 E15G26    29.94R
SHELDON *      MIX PCPN  43  43 100 NE28G33   29.95R
SIOUX CITY     RAIN      46  43  89 NE18G26   29.90R FOG
SPENCER        CLOUDY    43  40  89 NE23      29.98R FOG
STORM LAKE *   MIX PCPN  43  43 100 NE26G36   29.90R
$$

IAZ055>058-069>071-079>083-090>094-010200-
   SOUTHWEST IOWA

CITY           SKY/WX    TMP DP  RH WIND       PRES   REMARKS
ATLANTIC *     CLOUDY    48  48 100 NE13      29.83R FOG
AUDUBON *      CLOUDY    46  45  93 E16       29.86R FOG
CLARINDA *       N/A    N/A N/A N/A MISG        N/A
COUNCIL BLFS * CLOUDY    48  48 100 E12G20    29.81R
CRESTON *      CLOUDY    50  50 100 E14       29.83R
HARLAN  *      CLOUDY    48  46  93 E15G23    29.87R FOG
LAMONI         CLOUDY    52  51  97 NE9       29.80R
RED OAK *      CLOUDY    52  50  93 NE9       29.80S
SHENANDOAH *   CLOUDY    54  54 100 NE9       29.80R
$$

IAZ047>049-059>061-072>074-084-010200-
   CENTRAL IOWA

CITY           SKY/WX    TMP DP  RH WIND       PRES   REMARKS
AMES           CLOUDY    46  46 100 E20G30    29.88R
ANKENY *       CLOUDY    46  46 100 E18G25    29.86S FOG
BOONE *        CLOUDY    46  45  93 E24G31    29.87R
CHARITON *     CLOUDY    50  50 100 E13       29.83R FOG
DES MOINES     DRIZZLE   49  45  86 E15       29.85R FOG
GRINNELL*      CLOUDY    46  45  93 NE21      29.87R
KNOXVILLE *    CLOUDY    48  46  93 E22G29    29.83S FOG
MARSHALLTOWN   CLOUDY    46  43  89 E18G28    29.88S
NEWTON *       CLOUDY    46  46 100 NE21      29.87R FOG
PELLA *        CLOUDY    47  46  96 E10G24    29.87R FOG
$$

IAZ004>006-015-016-023>025-035-036-010200-
   NORTH CENTRAL IOWA

CITY           SKY/WX    TMP DP  RH WIND       PRES   REMARKS
ALGONA *       CLOUDY    45  41  87 NE21G29   29.97R
CLARION *      CLOUDY    45  45 100 E20G28    29.93S FOG
ESTHERVILLE    LGT RAIN  42  41  96 NE21G30   29.99R FOG
FORT DODGE *   CLOUDY    45  39  81 E20       29.92R
MASON CITY     CLOUDY    44  41  89 NE18G25   29.99R
FOREST CITY *  CLOUDY    45  41  87 NE14G21   29.98R
WEBSTER CITY * CLOUDY    46  45  93 NE22G28   29.89R FOG
IOWA FALLS *   LGT RAIN  46  43  87 E18G25    29.92S
$$

IAZ007>011-017>019-026>030-037>042-050>054-066-010200-
   NORTHEAST IOWA

CITY           SKY/WX    TMP DP  RH WIND       PRES   REMARKS
CEDAR RAPIDS   CLOUDY    46  45  96 E18G29    29.88R
CHARLES CITY * MOCLDY    45  43  93 E26G35    29.96S
CLINTON *      LGT RAIN  45  43  93 E20G30    29.90R
DECORAH *      CLOUDY    45  43  93 E15G23    29.98R
DUBUQUE        CLOUDY    43  41  93 NE18      29.93S FOG
MONTICELLO *   MOCLDY    45  43  93 E14G23    29.91S FOG
OELWEIN *      CLOUDY    45  45 100 E22       29.93S FOG
WATERLOO       CLOUDY    45  41  86 NE21G29   29.93S
$$

IAZ064-065-067-068-078-010200-
   EAST CENTRAL IOWA

CITY           SKY/WX    TMP DP  RH WIND       PRES   REMARKS
DAVENPORT      CLOUDY    46  43  89 E18G28    29.89R FOG
IOWA CITY      CLOUDY    46  44  93 NE18G26   29.89R FOG
MT. PLEASANT * CLOUDY    50  50 100 NE13      29.84R
MUSCATINE *    CLOUDY    48  45  87 NE14G23   29.86S
QUAD CITIES    CLOUDY    47  44  90 E16       29.88R FOG
$$

IAZ062-063-075>077-085>089-095>099-010200-
   SOUTHEAST IOWA

CITY           SKY/WX    TMP DP  RH WIND       PRES   REMARKS
BURLINGTON     CLOUDY    50  50 100 NE14      29.82R FOG
FAIRFIELD *    CLOUDY    48  46  93 NE17      29.84R FOG
FORT MADISON * CLOUDY    52  52 100 NE15      29.82R FOG
KEOKUK *       CLOUDY    55  55 100 NE7G16    29.80R FOG
OSKALOOSA *    LGT RAIN  46  45  93 E18G28    29.85R
OTTUMWA        CLOUDY    47  46  97 NE15      29.85R FOG
WASHINGTON *   CLOUDY    46  46 100 E23G30    29.86R
$$

ABBREVIATIONS USED IN REMARKS
   TC - TEMPERATURES IN CELSIUS
  WCI - WIND CHILL INDEX
   HX - HEAT INDEX
  VSB - VISIBILITY
$$





USA.gov is the U.S. government's official web portal to all federal, state and local government web resources and services.